TITAN 3C TRANSTAGE DEB, 38691

Orbit data source: Space-Track

TITAN 3C TRANSTAGE DEB, 38691 is space debris in GEO originally from a launch on Thu, 26 Sep 1968 UTC launched from the Air Force Eastern Test Range (AFETR). Debris objects in space refer to the collection of defunct objects orbiting the Earth. Examples of debris include non-operational satellites, rocket bodies, and fragments generated from explosions, collisions, or faulty payload assembly.

Loading next visibility...
Identifier
38691, 1968-081R
Orbit
GEO
Country
Flag of USUS
Related business
Manufacturer
Unknown
Mission
Spacecraft
Bus & Motor
Unknown
Mass
Unknown
Launch date (UTC)
1968-09-26 (58 years ago)
Launch vehicle
Unknown
Launch site
Air Force Eastern Test Range (AFETR)
Object type
Payload
Rocket body
Debris
Shape & HBR
Unknown shape, 1.1 m
Radar Cross Section
Medium (>0.1 m² and <1 m²)

Expand to show TLE details & history
Last TLE update: 1 day ago

TLE from 1 day ago
0 TITAN 3C TRANSTAGE DEB
1 38691U 68081R   26257.49416686 -.00000096  00000-0  00000-0 0  9992
2 38691   2.5872  50.0246 0189909 260.8954  97.3618  1.00719574 52263
Epoch: 2026-09-14T11:51Z
TLE epoch observation values (Epoch: 2026-09-14T11:51:36.016Z)
Latitude
-0.00002°
Longitude
-120.94716°
Altitude
35,774.201 km
Speed
3.071 km/s
True Right ascension
03h 21m 42s
True Declination
0° 00' 00"
Sunlit
Object was in daylight at epoch
Visualization orbit readout
Latitude
Unknown
Longitude
Unknown
Altitude
Unknown
Speed
Unknown
Apparent Right ascension
Unknown
Apparent Declination
Unknown
Sunlit
N/A
Visualization observer readout
Local Sidereal Time
05:06:15
Azimuth
Unknown
Elevation
Unknown
Doppler factor
Unknown
Orbital elements
Apogee altitude
36,460.991 km
Perigee altitude
34,864.208 km
Semi-major axis
42,040.737 km
Eccentricity
0.01899
Inclination
2.5872°
RAAN
50.0246°
Arg. of periapsis
260.8954°
True anomaly
99.51301°
Mean anomaly
97.3618°
Eccentric anomaly
98.43812°
Mean motion
0.25179 °/min
Orbital period
1,429.77 mins
BSTAR
0
Loading maneuver chart data...
Computing Atmospheric mass density...

Documentation

Showing up to 5 results
|